Location: *
(41.7492°S, 135.4150°W)
Time: 23:24:10
(UTC+00:00)

METEOR M2 - Pass Details

Date: 07 July 2022
Orbit: 818 x 827 km, 98.4° (Epoch: 17 August)

Event Time Altitude Azimuth Distance (km) Brightness Sun altitude
Exits shadow 05:53:08 12° 251° (WSW) 2,279 ? -45.5°
Drops below altitude 10° 05:54:23 10° 264° (W) 2,439 ? -45.7°
Sets 05:58:04 0° 290° (WNW) 3,364 ? -46.4°
